Location: Bacharowice
(49.9333°N, 19.5833°E)
Time: 08:21:33
(UTC+00:00)

Cosmos 2344 - Pass Details

Date: 25 September 2021
Orbit: 1235 x 3007 km, 63.3° (Epoch: 19 October)

Event Time Altitude Azimuth Distance (km) Brightness Sun altitude
Rises 23:40:26 0° 316° (NW) 4,586 6.8 -39.2°
Reaches altitude 10° 23:43:11 10° 311° (NW) 3,755 6.2 -39.1°
Enters shadow 23:47:43 32° 291° (WNW) 2,678 5.1 -38.8°
